[[{"header":{"parameterUnit":"m.s-1","parameterCategory":1,"la1":30.2991,"la2":30.254,"lo1":-89.0895,"lo2":-89.0444,"dy":0.0017,"dx":0.0017,"nx":28,"ny":28,"refTime":"2025-01-10T09:00:00:Z","depth":0,"parameterNumber":2,"parameterNumberName":"U-component_of_WINDS"},"data":[0,0,0,0,0,0,0,0,0,0,0,0,0,0,0,0,0,0,0,0,0,0,0,0,0,0,0,0,0,0,0,0,0,0,0,0,0,0,0,0,0,0,0,0,0,0,0,0,0,0,0,0,0,0,0,0,0,0,-1.4308,-1.4308,0,-1.4317,-1.4317,-1.4317,-1.4285,-1.4284,-1.4283,-1.4282,-1.4291,-1.4292,-1.4293,0,0,0,0,0,0,0,0,0,0,0,0,0,-1.4261,-1.4262,-1.4308,-1.4308,-1.4308,-1.4317,-1.4317,-1.4317,-1.4285,-1.4284,-1.4282,-1.4281,-1.4291,-1.4292,-1.4294,0,0,0,0,0,0,0,0,0,0,0,0,0,-1.4277,-1.4262,-1.4308,-1.4293,-1.4292,-1.4317,-1.4317,-1.4317,-1.4285,-1.4284,-1.4282,-1.4281,-1.429,-1.4292,-1.4294,-1.4334,0,0,-1.4299,-1.43,0,0,0,0,0,0,0,0,-1.4276,-1.4279,-1.4295,-1.4294,-1.4293,-1.4298,-1.4304,-1.4323,-1.4285,-1.4288,-1.4282,-1.428,-1.4295,-1.4296,-1.4301,-1.4334,-1.4335,-1.4299,-1.43,-1.4301,-1.4301,0,0,0,0,0,0,0,-1.4275,-1.4278,-1.4311,-1.4295,-1.4294,-1.4285,-1.4286,-1.4308,-1.4299,-1.4287,-1.4285,-1.4286,-1.4294,-1.4299,-1.4301,-1.4335,-1.4299,-1.4301,-1.4302,-1.4302,-1.4401,-1.4402,0,0,0,0,0,0,-1.4276,-1.4277,-1.4311,-1.4312,-1.4281,-1.4288,-1.4288,-1.4298,-1.4299,-1.4298,-1.4288,-1.4285,-1.4297,-1.4299,-1.4301,-1.4347,-1.4301,-1.4303,-1.4304,-1.4399,-1.4401,-1.4403,0,0,0,0,0,0,-1.4275,-1.4279,-1.4311,-1.4294,-1.4297,-1.429,-1.4301,-1.4299,-1.4304,-1.4299,-1.4298,-1.4295,-1.4296,-1.4299,-1.4326,-1.4347,-1.4303,-1.4305,-1.4397,-1.44,-1.4402,-1.4441,0,0,0,0,0,0,-1.4274,-1.4279,-1.4295,-1.4295,-1.4298,-1.4336,-1.4302,-1.43,-1.4308,-1.4304,-1.4306,-1.4304,-1.4295,-1.4323,-1.4328,-1.4349,-1.4306,-1.4395,-1.4398,-1.4401,-1.4437,-1.4444,-1.445,0,0,0,0,0,-1.4272,-1.4305,-1.4295,-1.43,-1.4317,-1.4337,-1.4339,-1.4328,-1.4309,-1.4325,-1.4321,-1.4304,-1.4345,-1.4326,-1.4331,-1.4353,-1.4394,-1.4398,-1.4401,-1.4435,-1.4443,-1.445,0,0,0,0,0,0,-1.4308,-1.4305,-1.4294,-1.4328,-1.4333,-1.4331,-1.435,-1.4337,-1.4347,-1.4343,-1.4328,-1.4329,-1.4358,-1.4359,-1.4338,-1.4391,-1.4366,-1.4371,-1.439,-1.4398,-1.4404,-1.4403,-1.4308,0,0,0,0,0,-1.432,-1.4336,-1.4333,-1.4363,-1.4366,-1.4358,-1.4366,-1.4356,-1.4361,-1.4363,-1.4361,-1.4366,-1.438,-1.4389,-1.4401,-1.4438,-1.4437,-1.4455,-1.4461,-1.4466,-1.447,-1.4488,-1.4496,-1.4414,-1.4414,-1.4414,0,0,-1.4344,-1.4345,-1.4356,-1.437,-1.4373,-1.4389,-1.436,-1.4379,-1.4391,-1.4366,-1.4391,-1.439,-1.4395,-1.4426,-1.444,-1.4427,-1.4493,-1.4471,-1.4475,-1.4476,-1.4493,-1.4501,-1.4507,-1.4417,-1.4416,-1.4416,0,0,-1.4397,-1.44,-1.4425,-1.4428,-1.4432,-1.4427,-1.4433,-1.4433,-1.4432,-1.4457,-1.4438,-1.4452,-1.4476,-1.448,-1.4485,-1.4539,-1.4523,-1.4543,-1.4575,-1.4593,-1.46,-1.4605,-1.4623,-1.463,-1.4547,-1.4547,-1.4548,0,-1.4427,-1.4452,-1.4439,-1.446,-1.4466,-1.4444,-1.4469,-1.4473,-1.4481,-1.4486,-1.4471,-1.45,-1.4502,-1.4533,-1.4547,-1.4552,-1.4558,-1.4543,-1.46,-1.4605,-1.461,-1.4627,-1.4635,-1.455,-1.455,-1.4549,-1.4549,0,-1.4488,-1.4505,-1.4525,-1.4533,-1.4542,-1.4564,-1.4555,-1.4565,-1.4555,-1.4551,-1.4576,-1.4578,-1.4589,-1.4596,-1.4587,-1.4627,-1.4618,-1.4602,-1.4576,-1.4621,-1.4636,-1.4643,-1.4553,-1.4552,-1.4552,-1.4551,0,0,-1.4563,-1.4564,-1.4571,-1.4574,-1.4578,-1.4591,-1.4612,-1.4623,-1.4632,-1.4639,-1.4655,-1.4676,-1.4661,-1.4667,-1.4657,-1.4674,-1.4715,-1.4655,-1.4655,-1.4665,-1.4758,-1.4769,-1.4777,-1.4705,-1.4707,-1.4708,-1.4757,0,-1.4615,-1.4651,-1.464,-1.4676,-1.4692,-1.4671,-1.4689,-1.4693,-1.469,-1.4702,-1.4698,-1.4713,-1.4692,-1.4695,-1.471,-1.4707,-1.4733,-1.4703,-1.472,-1.4721,-1.4719,-1.4785,-1.4798,-1.4844,-1.4763,-1.4764,-1.4765,0,-1.4679,-1.4688,-1.4726,-1.4725,-1.4731,-1.4748,-1.4757,-1.477,-1.4773,-1.477,-1.4776,-1.4763,-1.4784,-1.4758,-1.4786,-1.4766,-1.4772,-1.4772,-1.4773,-1.4773,-1.4745,-1.4787,-1.4859,-1.4866,-1.4775,-1.4774,-1.4773,0,-1.4729,-1.475,-1.4775,-1.4779,-1.4779,-1.4792,-1.4792,-1.4795,-1.4802,-1.481,-1.4814,-1.4825,-1.4831,-1.4839,-1.4829,-1.4812,-1.4858,-1.4832,-1.4855,-1.4855,-1.4865,-1.4864,-1.4938,-1.4871,-1.4871,-1.4871,-1.487,0,-1.4787,-1.4811,-1.4798,-1.4813,-1.4839,-1.4826,-1.4852,-1.485,-1.4852,-1.4867,-1.485,-1.4864,-1.4851,-1.4863,-1.4856,-1.4879,-1.4882,-1.4879,-1.4877,-1.488,-1.4881,-1.4884,-1.488,-1.4872,-1.4872,-1.4872,-1.4871,0,-1.4847,-1.4839,-1.4865,-1.4863,-1.4863,-1.4882,-1.4881,-1.4895,-1.489,-1.4908,-1.4912,-1.4905,-1.4919,-1.491,-1.4925,-1.492,-1.495,-1.4943,-1.4948,-1.4946,-1.4969,-1.4967,-1.5047,-1.5056,-1.4984,-1.4985,-1.4985,0,-1.4883,-1.4901,-1.4901,-1.491,-1.4911,-1.4925,-1.4932,-1.4921,-1.4929,-1.4934,-1.4947,-1.496,-1.4969,-1.4992,-1.4988,-1.4998,-1.4991,-1.5019,-1.4993,-1.4995,-1.4991,-1.4989,-1.499,-1.5024,-1.5025,-1.5025,-1.5026,0,-1.4949,-1.4945,-1.4955,-1.4965,-1.4974,-1.4981,-1.4987,-1.4995,-1.4983,-1.4993,-1.5006,-1.5014,-1.5028,-1.504,-1.5049,-1.505,-1.5036,-1.5034,-1.504,-1.5043,-1.5044,-1.5043,-1.4961,-1.5032,-1.5032,-1.5031,-1.5031,-1.5031,-1.4998,-1.5012,-1.5014,-1.5027,-1.503,-1.5035,-1.5048,-1.5045,-1.5056,-1.5067,-1.5059,-1.5075,-1.5078,-1.5088,-1.5091,-1.5103,-1.5092,-1.51,-1.5102,-1.5104,-1.5107,-1.5043,-1.5105,-1.5105,-1.5104,-1.5104,-1.5104,0,-1.5062,-1.5062,-1.5074,-1.5082,-1.5092,-1.5078,-1.5083,-1.5092,-1.5107,-1.511,-1.512,-1.5135,-1.5147,-1.5144,-1.5154,-1.5165,-1.5158,-1.5168,-1.5166,-1.5166,-1.5117,-1.511,-1.5172,-1.5172,-1.5172,-1.5172,-1.5172,-1.5172,-1.5096,-1.5119,-1.5115,-1.5139,-1.5139,-1.5154,-1.5159,-1.5163,-1.5166,-1.5184,-1.5194,-1.5191,-1.5192,-1.5202,-1.5212,-1.5211,-1.5215,-1.5227,-1.5223,-1.5177,-1.517,-1.5163,-1.5157,-1.5228,-1.5228,-1.5271,-1.5271,-1.5272]},{"header":{"parameterUnit":"m.s-1","parameterCategory":1,"la1":30.2991,"la2":30.254,"lo1":-89.0895,"lo2":-89.0444,"dy":0.0017,"dx":0.0017,"nx":28,"ny":28,"refTime":"2025-01-10T09:00:00:Z","depth":0,"parameterNumber":3,"parameterNumberName":"V-component_of_WINDS"},"data":[0,0,0,0,0,0,0,0,0,0,0,0,0,0,0,0,0,0,0,0,0,0,0,0,0,0,0,0,0,0,0,0,0,0,0,0,0,0,0,0,0,0,0,0,0,0,0,0,0,0,0,0,0,0,0,0,0,0,-1.1573,-1.1574,0,-1.16,-1.16,-1.16,-1.1603,-1.1603,-1.1602,-1.1602,-1.1629,-1.163,-1.1631,0,0,0,0,0,0,0,0,0,0,0,0,0,-1.1524,-1.1525,-1.1573,-1.1574,-1.1574,-1.16,-1.16,-1.16,-1.1603,-1.1603,-1.1602,-1.1602,-1.1629,-1.163,-1.1631,0,0,0,0,0,0,0,0,0,0,0,0,0,-1.1548,-1.1526,-1.1573,-1.1578,-1.1579,-1.1599,-1.16,-1.16,-1.1603,-1.1603,-1.1602,-1.1602,-1.1629,-1.163,-1.1631,-1.1649,0,0,-1.1636,-1.1637,0,0,0,0,0,0,0,0,-1.1546,-1.1549,-1.1577,-1.1578,-1.1579,-1.1598,-1.1593,-1.1617,-1.1603,-1.1594,-1.1602,-1.1602,-1.1619,-1.1621,-1.1627,-1.165,-1.1651,-1.1636,-1.1637,-1.1638,-1.1638,0,0,0,0,0,0,0,-1.1545,-1.1548,-1.1584,-1.1578,-1.1579,-1.1579,-1.1582,-1.1597,-1.1608,-1.1595,-1.1595,-1.1598,-1.1619,-1.1626,-1.1628,-1.1651,-1.1636,-1.1637,-1.1638,-1.1639,-1.1688,-1.1688,0,0,0,0,0,0,-1.1542,-1.1547,-1.1583,-1.1584,-1.1561,-1.158,-1.1583,-1.1592,-1.1608,-1.161,-1.1598,-1.1598,-1.1623,-1.1626,-1.1629,-1.1649,-1.1638,-1.1639,-1.164,-1.1688,-1.1688,-1.1688,0,0,0,0,0,0,-1.1541,-1.1545,-1.1582,-1.1566,-1.157,-1.1582,-1.1591,-1.1593,-1.1599,-1.1611,-1.1613,-1.1603,-1.1623,-1.1627,-1.1643,-1.165,-1.164,-1.1641,-1.1687,-1.1688,-1.1688,-1.169,0,0,0,0,0,0,-1.154,-1.1545,-1.1552,-1.1566,-1.1571,-1.1596,-1.1591,-1.1593,-1.1601,-1.1601,-1.1616,-1.1618,-1.1623,-1.1641,-1.1645,-1.1652,-1.1642,-1.1686,-1.1687,-1.1688,-1.1689,-1.169,-1.1691,0,0,0,0,0,-1.1538,-1.1552,-1.1552,-1.1557,-1.158,-1.1597,-1.16,-1.1606,-1.1602,-1.1609,-1.1616,-1.1617,-1.1649,-1.1643,-1.1647,-1.1654,-1.1686,-1.1687,-1.1688,-1.1689,-1.169,-1.1691,0,0,0,0,0,0,-1.1539,-1.1554,-1.1554,-1.1573,-1.1583,-1.1597,-1.1606,-1.1607,-1.1619,-1.1618,-1.1625,-1.1628,-1.1644,-1.1651,-1.1644,-1.1671,-1.1667,-1.1669,-1.1666,-1.1668,-1.1669,-1.1666,-1.1643,0,0,0,0,0,-1.1541,-1.1553,-1.1565,-1.1581,-1.1586,-1.1595,-1.1602,-1.1606,-1.1617,-1.1621,-1.163,-1.1641,-1.1653,-1.1661,-1.1672,-1.169,-1.1693,-1.1697,-1.1698,-1.1699,-1.1701,-1.1709,-1.1711,-1.1692,-1.1692,-1.1692,0,0,-1.1546,-1.1555,-1.1563,-1.1581,-1.1589,-1.1601,-1.1599,-1.1612,-1.162,-1.1623,-1.1639,-1.1646,-1.1658,-1.1675,-1.1683,-1.1681,-1.1706,-1.17,-1.1701,-1.1702,-1.171,-1.1712,-1.1714,-1.1692,-1.1692,-1.1692,0,0,-1.1561,-1.157,-1.1583,-1.1591,-1.1603,-1.1609,-1.1612,-1.1625,-1.1629,-1.1645,-1.1647,-1.1658,-1.1679,-1.1687,-1.1694,-1.171,-1.1711,-1.1714,-1.172,-1.1728,-1.1729,-1.1731,-1.1736,-1.1737,-1.1715,-1.1715,-1.1715,0,-1.1565,-1.1583,-1.1589,-1.1602,-1.1609,-1.1612,-1.1625,-1.1632,-1.1648,-1.1653,-1.1651,-1.1676,-1.1685,-1.1703,-1.1707,-1.1713,-1.1716,-1.1712,-1.1729,-1.173,-1.1732,-1.1736,-1.1738,-1.1716,-1.1715,-1.1715,-1.1715,0,-1.1588,-1.16,-1.1609,-1.1624,-1.1632,-1.1645,-1.1652,-1.166,-1.1662,-1.1668,-1.1684,-1.1694,-1.1707,-1.1712,-1.1715,-1.173,-1.1728,-1.1727,-1.1723,-1.1733,-1.1738,-1.174,-1.1716,-1.1716,-1.1716,-1.1716,0,0,-1.1604,-1.1621,-1.1624,-1.163,-1.1643,-1.1653,-1.1665,-1.1678,-1.1684,-1.1695,-1.1705,-1.1722,-1.172,-1.1728,-1.1732,-1.1739,-1.175,-1.1737,-1.1738,-1.1739,-1.1766,-1.1767,-1.1769,-1.1751,-1.1751,-1.1752,-1.1765,0,-1.162,-1.1642,-1.1647,-1.1666,-1.1676,-1.1678,-1.1689,-1.1698,-1.1703,-1.1713,-1.1719,-1.1731,-1.1729,-1.1733,-1.1741,-1.1747,-1.1756,-1.1747,-1.176,-1.176,-1.1756,-1.1771,-1.1772,-1.1784,-1.1767,-1.1767,-1.1768,0,-1.1642,-1.1652,-1.1671,-1.1682,-1.1687,-1.1696,-1.1707,-1.1717,-1.1727,-1.173,-1.1738,-1.1741,-1.1753,-1.1748,-1.1765,-1.1758,-1.1764,-1.1768,-1.1768,-1.177,-1.1764,-1.1772,-1.1788,-1.179,-1.1771,-1.177,-1.177,0,-1.165,-1.1669,-1.1683,-1.1688,-1.1701,-1.1708,-1.1713,-1.1723,-1.173,-1.174,-1.1744,-1.1755,-1.1761,-1.177,-1.1775,-1.1771,-1.179,-1.1787,-1.1793,-1.1793,-1.1797,-1.1797,-1.1814,-1.1801,-1.1801,-1.1801,-1.1801,0,-1.1667,-1.1679,-1.1687,-1.1695,-1.1708,-1.1713,-1.1726,-1.1732,-1.174,-1.1749,-1.1752,-1.176,-1.1767,-1.1776,-1.178,-1.1793,-1.1796,-1.1798,-1.1799,-1.1798,-1.1797,-1.1801,-1.18,-1.1802,-1.1802,-1.1802,-1.1802,0,-1.1679,-1.1685,-1.17,-1.1711,-1.1714,-1.1723,-1.1732,-1.174,-1.1745,-1.1756,-1.1759,-1.1767,-1.1778,-1.1784,-1.1798,-1.1801,-1.1814,-1.1815,-1.1811,-1.1811,-1.1817,-1.1816,-1.1837,-1.1839,-1.1826,-1.1826,-1.1826,0,-1.1689,-1.1698,-1.1709,-1.1715,-1.1721,-1.1731,-1.1738,-1.1743,-1.175,-1.1761,-1.1768,-1.1778,-1.1788,-1.1805,-1.1812,-1.1822,-1.1823,-1.1829,-1.1824,-1.1822,-1.1822,-1.1821,-1.1822,-1.183,-1.183,-1.183,-1.183,0,-1.1706,-1.1708,-1.1717,-1.1728,-1.1736,-1.1744,-1.1752,-1.1757,-1.1764,-1.1771,-1.1782,-1.1789,-1.1803,-1.1813,-1.1824,-1.183,-1.1831,-1.1832,-1.1834,-1.1832,-1.1829,-1.183,-1.1813,-1.1831,-1.1831,-1.1831,-1.1831,-1.1831,-1.1716,-1.1724,-1.1733,-1.1743,-1.175,-1.1757,-1.1765,-1.177,-1.178,-1.1791,-1.1793,-1.1805,-1.1813,-1.1828,-1.1833,-1.1842,-1.1841,-1.1844,-1.1844,-1.1845,-1.1845,-1.1828,-1.1844,-1.1844,-1.1844,-1.1844,-1.1844,0,-1.1732,-1.1738,-1.1747,-1.1758,-1.1766,-1.1766,-1.1775,-1.1782,-1.1792,-1.18,-1.1808,-1.182,-1.183,-1.1837,-1.1847,-1.1853,-1.1854,-1.1855,-1.1855,-1.1856,-1.1846,-1.1843,-1.1854,-1.1854,-1.1854,-1.1854,-1.1854,-1.1854,-1.1742,-1.1754,-1.1757,-1.1772,-1.1778,-1.1789,-1.1794,-1.18,-1.1806,-1.182,-1.1828,-1.1832,-1.184,-1.185,-1.1859,-1.1861,-1.1864,-1.1866,-1.1867,-1.1858,-1.1857,-1.1856,-1.1853,-1.1866,-1.1866,-1.1877,-1.1877,-1.1877]}]]